Terug naar catalogus

KHALIFASAT

ActiefWetenschapSSO
NORAD 43676·PAYLOAD·🇦🇪 UAE

Gelanceerd Oct 29, 2018 vanaf Tanegashima Space Center

Loading…

Volgende Passages (komende 24 uur)

TLE

VersSource: Space-Track

Epoch: Sep 14, 2026, 23:09 UTC

1 43676U 18084F   26257.96460294  .00000387  00000-0  34977-4 0  9991
2 43676  98.0836  84.0330 0005431 172.1326 187.9983 15.01554542429243

Volg KHALIFASAT in realtime met AllMySat

Download on the App Store